www.pogodaiklimat.ru

Погода и климат >> Архив погоды >> Индонезия >> Маумере


ПОГОДА в Маумере

  • Прогноз погоды в Маумере
  • Монитор погоды в Маумере

АРХИВ ПОГОДЫ в Маумере

Время (UTC), дата Ветер
(напр.,м/с)
 
Видим.   Явления Облачность Т
(С)
Тd
(С)
f
(%)
Тe
(С)
Тes
(С)
Комфортность P
(гПа)
Po
(гПа)
Тmin
(С)
Tmax
(С)
R
(мм)
R24
(мм)
S
(см)
06 12.06 Ю 6 10 км 9/6 540 м
[Cu med, cong Ac As Ci fib]
+30.4 +23.5 67 +41 +42 опасность
перегрева
1011.5 1007.8
09 12.06 Ю 6 10 км 6/3 540 м
[Cu med, cong Ac trans Ci fib]
+28.0 +23.7 77 +38 +38 очень
душно
1011.3 1007.7
12 12.06 Ю 5 8000 м 8/5 540 м
[Cu med, cong Ac trans Ci fib]
+27.0 +23.4 81 +37 +37 очень
душно
1012.8 1009.1 +30.9
15 12.06 ЮЗ 7 8000 м 8/4 540 м
[Cu med, cong Ac As Ci fib]
+26.5 +23.3 83 +36 +36 очень
душно
1013.0 1009.4
18 12.06 ЮЗ 7 8000 м 9/4 540 м
[Cu med, cong Ac As Ci fib]
+26.4 +23.4 84 +36 +36 очень
душно
1011.5 1007.9
21 12.06 Ю 3 8000 м 9/4 540 м
[Cu med, cong Ac As Ci fib]
+26.4 +23.8 86 +36 +36 очень
душно
1011.4 1007.8
00 13.06 Ю 2 9000 м 8/4 540 м
[Cu med, cong Ac As Ci fib]
+27.9 +24.6 82 +39 +41 очень
душно
1013.6 1009.9 +26.2
03 13.06 Ю 4 10 км 9/6 540 м
[Cu med, cong Ac trans Ci fib]
+30.6 +23.9 67 +42 +44 опасность
перегрева
1013.2 1009.6
06 13.06 ЮЗ 7 10 км 5/4 540 м
[Cu med, cong Ac trans Ci fib]
+31.5 +24.3 66 +44 +45 опасность
перегрева
1010.0 1006.4
09 13.06 ЮЗ 7 10 км 5/4 540 м
[Cu med, cong Ac trans Ci fib]
+28.3 +28.3 100 +48 +48 опасность
перегрева
1010.6 1007.0
12 13.06 ЮВ 2 8000 м 6/4 540 м
[Cu med, cong Ac trans Ci fib]
+26.4 +24.0 87 +37 +37 очень
душно
1012.9 1009.3 +32.0
15 13.06 ЮЗ 1 8000 м 4/3 540 м
[Cu hum Ac trans Ci fib]
+26.8 +23.8 84 +37 +37 очень
душно
1013.2 1009.6
18 13.06 ЮВ 2 8000 м 3/3 540 м
[Cu hum Ac trans Ci fib]
+26.2 +23.6 86 +36 +36 очень
душно
1012.1 1008.4
21 13.06 ЮЗ 6 8000 м 3/3 540 м
[Cu hum Ac trans Ci fib]
+25.8 +23.4 87 +35 +35 очень
душно
1011.6 1007.9
00 14.06 Ю 4 10 км 3/3 540 м
[Cu med, cong Ci fib]
+28.6 +22.7 70 +38 +40 очень
душно
1012.9 1009.3 +28.5
03 14.06 Ю 6 10 км 4/4 540 м
[Cu med, cong Ci fib]
+31.0 +20.5 54 +38 +41 очень
душно
1012.9 1009.2
06 14.06 Ю 5 10 км 4/4 540 м
[Cu med, cong Ci fib]
+31.0 +22.2 60 +40 +44 очень
душно
1010.0 1006.3
09 14.06 Ю 5 10 км 1/1 540 м
[Cu hum Ci fib]
+29.0 +20.6 61 +36 +36 очень
душно
1010.1 1006.5
12 14.06 Ю 3 9000 м 1/1 540 м
[Cu hum Ci fib]
+25.6 +22.2 82 +33 +33 очень
душно
1012.8 1009.2 +32.2
15 14.06 ЮВ 2 8000 м 1/1 540 м
[Cu hum Ci fib]
+24.8 +21.8 83 +32 +32 очень
душно
1013.5 1009.8
18 14.06 ЮВ 3 8000 м 3/3 540 м
[Cu med, cong Ci fib]
+24.6 +21.8 84 +31 +31 очень
душно
1012.9 1009.3
21 14.06 Ю 3 8000 м 3/3 540 м
[Cu med, cong Ci fib]
+24.2 +20.8 81 +30 +30 очень
душно
1012.7 1009.0
00 15.06 Ю 6 10 км 3/0 540 м
[Cu med, cong Ci fib]
+27.0 +21.6 72 +34 +36 очень
душно
1014.1 1010.5 +22.0
03 15.06 Ю 9 10 км 4/4 540 м
[Cu med, cong Ci fib]
+29.2 +21.3 62 +37 +38 очень
душно
1013.7 1010.0
06 15.06 Ю 8 10 км 4/4 540 м
[Cu med, cong Ci fib]
+29.2 +20.5 59 +36 +37 очень
душно
1011.3 1007.7
09 15.06 Ю 5 10 км 3/3 540 м
[Cu med, cong Ci fib]
+27.8 +20.3 64 +34 +35 очень
душно
1011.4 1007.8
12 15.06 Ю 5 8000 м 1/1 540 м
[Cu hum Ci fib]
+24.9 +21.1 79 +31 +31 очень
душно
1013.4 1009.8 +30.4
15 15.06 ЮВ 2 8000 м 1/1 540 м
[Cu hum Ci fib]
+24.2 +21.0 82 +30 +30 очень
душно
1013.8 1010.1
18 15.06 ЮВ 2 8000 м 1/1 540 м
[Cu hum Ci fib]
+23.0 +20.8 87 +30 +30 очень
душно
1012.9 1009.3
21 15.06 ЮВ 3 8000 м 1/1 540 м
[Cu hum Ci fib]
+21.8 +20.2 91 +28 +28 душно 1013.0 1009.4
00 16.06 ЮВ 2 10 км 1/1 570 м
[Cu hum Ci fib]
+26.6 +21.0 71 +33 +37 очень
душно
1014.6 1010.9 +21.8
03 16.06 ЮЗ 6 10 км 4/4 540 м
[Cu med, cong Ci fib]
+29.4 +21.0 61 +37 +40 очень
душно
1013.7 1010.1
06 16.06 Ю 3 10 км 3/3 540 м
[Cu hum Ci fib]
+31.6 +21.1 54 +39 +46 очень
душно
1011.5 1007.9
09 16.06 ЮЗ 6 10 км 3/0 540 м
[Cu hum Ci fib]
+27.6 +21.1 68 +35 +35 очень
душно
1011.6 1007.9
12 16.06 Ю 4 8000 м 3/0 540 м
[Cu hum]
+25.2 +21.2 79 +32 +32 очень
душно
1013.9 1010.3 +31.8
15 16.06 Ю 2 8000 м 3/3 540 м
[Cu hum Ci fib]
+24.2 +21.4 84 +31 +31 очень
душно
1014.4 1010.7
18 16.06 Ю 3 8000 м 3/3 540 м
[Cu hum Ci fib]
+23.3 +20.1 82 +30 +30 очень
душно
1014.0 1010.3
21 16.06 Ю 3 8000 м 3/3 540 м
[Cu med, cong Ci fib]
+23.4 +20.2 82 +31 +31 очень
душно
1013.8 1010.1
00 17.06 Ю 5 10 км 3/3 540 м
[Cu med, cong Ci fib]
+26.8 +21.0 71 +34 +35 очень
душно
1015.2 1011.5 +22.8
03 17.06 ЮВ 3 10 км 3/0 540 м
[Cu med, cong]
+31.0 +19.9 52 +37 +49 очень
душно
1014.3 1010.6
06 17.06 ЮЗ 6 10 км 4/0 540 м
[Cu hum]
+31.2 +21.6 57 +40 +43 очень
душно
1012.1 1008.4
09 17.06 ЮЗ 5 10 км 1/0 540 м
[Cu hum]
+27.4 +20.4 66 +34 +34 очень
душно
1012.7 1009.1
12 17.06 Ю 2 8000 м 1/0 540 м
[Cu hum]
+24.8 +21.4 81 +31 +31 очень
душно
1014.6 1010.9 +33.0
15 17.06 Ю 3 8000 м 1/1 540 м
[Cu hum Ci fib]
+23.9 +21.3 85 +30 +30 очень
душно
1014.9 1011.2
18 17.06 Ю 4 8000 м 3/3 540 м
[Cu med, cong Ac trans Ci fib]
+23.6 +20.6 83 +29 +29 душно 1013.6 1010.0
21 17.06 Ю 3 8000 м 3/3 540 м
[Cu med, cong Ac trans Ci fib]
+22.5 +19.8 85 +29 +29 очень
душно
1013.7 1010.0
00 18.06 ЮЗ 3 10 км 1/0 540 м
[Cu hum]
+27.0 +20.5 68 +34 +37 очень
душно
1014.9 1011.2 +22.5
03 18.06 ЮВ 4 10 км 3/3 540 м
[Cu med, cong Ci fib]
+30.4 +19.3 52 +36 +44 очень
душно
1013.9 1010.3
06 18.06 С 4 10 км 3/3 540 м
[Cu med, cong Ci fib]
+31.4 +19.9 51 +38 +43 очень
душно
1011.5 1007.8
09 18.06 ЮЗ 5 10 км 3/0 540 м
[Cu med, cong]
+27.6 +21.1 68 +35 +35 очень
душно
1011.6 1007.9
12 18.06 Ю 2 8000 м 3/3 540 м
[Cu med, cong Ci fib]
+24.5 +21.3 82 +31 +31 очень
душно
1013.3 1009.6 +32.0
15 18.06 Ю 2 8000 м 1/0 540 м
[Cu hum]
+22.8 +21.0 90 +30 +30 очень
душно
1013.6 1010.0
18 18.06 Ю 3 8000 м 1/1 540 м
[Cu hum]
+23.4 +20.8 85 +31 +31 очень
душно
1013.1 1009.4
21 18.06 ЮЗ 3 8000 м 1/1 540 м
[Cu hum]
+23.2 +20.1 83 +30 +30 очень
душно
1013.1 1009.4
00 19.06 ЮЗ 5 10 км 1/1 540 м
[Cu hum Ci fib]
+26.0 +20.2 70 +32 +34 очень
душно
1014.0 1010.4 +22.8
03 19.06 С 3 10 км 3/3 540 м
[Cu med, cong Ci fib]
+31.2 +21.6 57 +40 +49 очень
душно
1012.9 1009.2

 

Местоположение метеостанции Маумере (Индонезия): широта -8.63 долгота 122.25 высота над уровнем моря 3 м.

В архиве по умолчанию представлена погода в Маумере за последнюю неделю. Архивные данные за месяц целиком и за предыдущие месяцы, начиная с января 2011 года, Вы можете получить, выбрав интересующий диапазон дат из раскрывающегося списка и нажав кнопку "Ввод!".


*Определитесь, кто Вы:
робот инопланетянин человек

Внимание! Время в таблицах - всемирное. Для получения местного времени необходимо прибавить поправку, которая равна 8 ч.

Смотрите также архив погоды в соседних городах и на ближайших метеорологических станциях:

Погода в Ларантуке (Индонезия) (89 км)
Погода в Рутенге (Индонезия) (198 км)
Погода в Сабу (Индонезия) (213 км)
Погода в Купанге (Индонезия) (230 км)
Погода в Аэропорту Умбу Механг Кунда (Индонезия) (240 км)
Погода на Роти (Индонезия) (250 км)
Погода на Алоре (Индонезия) (258 км)
Погода в Бау-Бау (Индонезия) (354 км)
Погода в Биме (Индонезия) (391 км)
Погода в Колаке (Индонезия) (488 км)

Пояснения к столбцам:

Ветер - указаны скорость ветра в м/с - средняя за 10 мин, порывы в срок и между сроками (в фигурных скобках) и направление, откуда дует ветер: С - северный, СВ - северо-восточный, В - восточный, ЮВ - юго-восточный, Ю - южный, ЮЗ - юго-западный, З - западный, СЗ - северо-западный.
Видимость - горизонтальная дальность видимости в метрах или километрах. При видимости от 1 до 10 км при отсутствии осадков обычно наблюдается дымка, при ухудшении видимости до 1 км и менее - туман. В сухую погоду видимость может ухудшаться дымом, пылью или мглою.
Явления - указаны атмосферные явления, наблюдавшиеся в срок или в последний час перед сроком; фигурными скобками обозначены явления, наблюдавшиеся между сроками (за 1-3 часа до срока); квадратными скобками обозначены град или гололедные отложения с указанием их диаметра в мм.
Облачность - указаны через наклонную черту общая и нижняя облачность в баллах и высота нижней границы облаков в метрах; квадратными скобками обозначены формы облаков: Ci - перистые, Cs - перисто-слоистые, Cc - перисто-кучевые, Ac - высококучевые, As - высокослоистые, Sc - слоисто-кучевые, Ns - слоисто-дождевые, Cu - кучевые, Cb - кучево-дождевые. Подробнее классификацию облаков см. в Атласе облаков (PDF).
T - Температура воздуха - температура, измеренная на высоте 2 м над землей.
Td - Температура точки росы - температура, при понижении до которой содержащийся в воздухе водяной пар достигнет насыщения.
f - Относительная влажность воздуха - влажноcть воздуха, измеренная на высоте 2 м над землей.
Te - Эффективная температура - температура, которую ощущает одетый по сезону человек в тени. Характеристика душности погоды. При расчете учитывается влияние влажности воздуха и скорости ветра на теплоощущения человека.
Tes - Эффективная температура на солнце - температура, которую ощущает человек, с поправкой на солнечный нагрев. Характеристика знойности погоды. Зависит от высоты солнца над горизонтом, облачности и скорости ветра. Ночью, в пасмурную погоду, а также при ветре 12 м/с и более поправка равна нулю.
P - Атмосферное давление - приведенное к уровню моря атмосферное давление.
Po - Атмосферное давление - измеренное на уровне метеостанции атмосферное давление.
Tmin - Минимальная температура - минимум температуры воздуха на высоте 2 м над землей.
Tmax - Максимальная температура - максимум температуры воздуха на высоте 2 м над землей.
R - Количество осадков - Количество выпавших осадков за период времени, мм. При наведении курсора мыши на число - период времени, за который выпало указанное количество осадков.
R24 - Количество осадков - Количество выпавших осадков за 24 часа, мм.
S - Снежный покров - Высота снежного покрова, см. При наведении курсора мыши на число - состояние снежного покрова и степень покрытия местности в баллах.